This demonstration page uses our WeatherBlox Daily Observations layout. Learn more.

Left ArrowRight Arrow

44.8408, -93.29828

Hourly Observations for March 30, 2022

Temp ( °F °C ) Dew Point ( °F °C ) Humidity (%) Winds ( mph kmh ) Pressure ( in mb ) Visibility ( mi km ) Precip ( " mm )
12:12 am 00:12 Cloudy with Light Rain 35 1.7 26 -3.3 70 70 Calm 29.70 1006 4 6 0.01 0.25
12:40 am 00:40 Cloudy with Rain 33 0.6 27 -2.8 78 78 ENE 8 13 29.65 1004 5 8 0.12 3.05
12:53 am 00:53 Cloudy 33 0.6 28 -2.2 82 82 E 12 19 29.60 1003 5 8 0.16 4.06
1:32 am 01:32 Cloudy with Light Freezing Rain 33 0.6 29 -1.7 85 85 ENE 10 17 29.61 1003 10 16 0.08 2.03
1:53 am 01:53 Cloudy with Light Freezing Rain 32 0 29 -1.7 88 88 ENE 12 19 29.56 1001 10 16 0.08 2.03
2:42 am 02:42 Cloudy 32 0 28 -2.2 85 85 NE 12 19 29.54 1000 10 16 0.02 0.51
2:53 am 02:53 Cloudy 32 0 28 -2.2 85 85 NE 10 17 29.52 1000 10 16 0.02 0.51
3:01 am 03:01 Cloudy with Light Freezing Rain 32 0 28 -2.2 85 85 NE 12 19 29.54 1000 9 14 0.00 0.00
3:53 am 03:53 Cloudy with Light Freezing Rain 32 0 28 -2.2 85 85 ENE 12 19 29.52 1000 4 6 0.02 0.51
4:17 am 04:17 Cloudy with Freezing Rain 32 0 28 -2.2 85 85 NE 13 20 29.51 999 4 6 0.02 0.51
4:28 am 04:28 Cloudy with Light Freezing Rain 32 0 29 -1.7 88 88 NE 10 17 29.50 999 7 11 0.05 1.27
4:31 am 04:31 Cloudy 32 0 29 -1.7 88 88 NE 12 19 29.50 999 8 13 0.05 1.27
4:38 am 04:38 Cloudy with Light Freezing Rain 32 0 29 -1.7 88 88 NE 9 15 29.50 999 9 14 0.05 1.27
4:53 am 04:53 Cloudy with Light Freezing Rain 32 0 29 -1.7 88 88 NE 9 15 29.48 998 4 6 0.09 2.29
5:02 am 05:02 Cloudy with Freezing Rain 32 0 29 -1.7 88 88 NE 9 15 29.50 999 5 8 0.02 0.51
5:12 am 05:12 Cloudy with Light Freezing Rain 32 0 29 -1.7 88 88 NE 9 15 29.50 999 7 11 0.03 0.76
5:42 am 05:42 Cloudy with Freezing Rain 32 0 29 -1.7 88 88 NE 9 15 29.50 999 4 6 0.07 1.78
5:53 am 05:53 Cloudy with Light Freezing Rain 32 0 29 -1.7 88 88 NNE 10 17 29.47 998 5 8 0.08 2.03
6:02 am 06:02 Cloudy with Freezing Rain 32 0 29 -1.7 88 88 NNE 8 13 29.50 999 4 6 0.03 0.76
6:05 am 06:05 Cloudy with Mist and Fog 32 0 29 -1.7 88 88 NNE 7 11 29.51 999 4 6 0.03 0.76
6:27 am 06:27 Cloudy with Mist and Fog 32 0 29 -1.7 88 88 NE 7 11 29.50 999 3 5 0.09 2.29
6:39 am 06:39 Cloudy with Light Snow 32 0 29 -1.7 88 88 NNE 5 7 29.51 999 3 5 0.11 2.79
6:53 am 06:53 Cloudy with Light Snow 32 0 30 -1.1 92 92 NE 7 11 29.49 999 3 5 0.12 3.05
6:57 am 06:57 Cloudy with Light Snow 32 0 30 -1.1 92 92 NE 10 17 29.50 999 2 3 0.01 0.25
7:04 am 07:04 Cloudy with Light Snow 32 0 29 -1.7 88 88 NNE 12 19 29.49 999 1 2 0.02 0.51
7:05 am 07:05 Mostly Cloudy with Mist and Fog 32 0 29 -1.7 88 88 NNE 13 20 29.48 998 1 2 0.02 0.51
7:16 am 07:16 Cloudy with Mist and Fog 32 0 29 -1.7 88 88 NNE 17 28 29.45 997 1 1 0.04 1.02
7:23 am 07:23 Cloudy with Mist and Fog 32 0 30 -1.1 92 92 NNE 14 22 29.45 997 1 1 0.07 1.78
7:34 am 07:34 Cloudy with Mist and Fog 32 0 30 -1.1 92 92 VRB 5 7 29.48 998 1 2 0.09 2.29
7:53 am 07:53 Cloudy with Mist and Fog 32 0 31 -0.6 96 96 NE 8 13 29.45 997 2 3 0.10 2.54
7:59 am 07:59 Cloudy with Drizzle 32 0 31 -0.6 96 96 NNE 7 11 29.47 998 2 3 0.00 0.00
8:13 am 08:13 Cloudy with Mist and Fog 32 0 31 -0.6 96 96 NNE 9 15 29.47 998 6 10 0.00 0.00
8:53 am 08:53 Cloudy 33 0.6 31 -0.6 92 92 N 8 13 29.46 998 7 11 0.00 0.00
9:53 am 09:53 Cloudy 33 0.6 30 -1.1 89 89 N 8 13 29.46 998 8 13 0.00 0.00
10:53 am 10:53 Cloudy 33 0.6 30 -1.1 89 89 N 10 17 29.47 998 7 11 0.00 0.00
11:05 am 11:05 Cloudy with Mist and Fog 33 0.6 30 -1.1 89 89 N 12 19 29.48 998 5 8 0.01 0.25
11:21 am 11:21 Cloudy with Mist and Fog 33 0.6 30 -1.1 89 89 N 9 15 29.49 999 2 3 0.02 0.51
11:53 am 11:53 Cloudy with Mist and Fog 33 0.6 30 -1.1 89 89 N 14 22 29.46 998 2 3 0.05 1.27
11:58 am 11:58 Cloudy with Light Snow 33 0.6 31 -0.6 92 92 N 13 20 29.47 998 2 2 0.00 0.00
12:18 pm 12:18 Cloudy with Light Snow 33 0.6 31 -0.6 92 92 N 15 24 29.47 998 2 3 0.01 0.25
12:43 pm 12:43 Cloudy with Mist and Fog 33 0.6 30 -1.1 89 89 N 13 20 29.48 998 2 3 0.01 0.25
12:53 pm 12:53 Cloudy with Mist and Fog 33 0.6 30 -1.1 89 89 N 14 22 29.47 998 2 3 0.01 0.25
1:02 pm 13:02 Cloudy with Mist and Fog 33 0.6 31 -0.6 92 92 N 14 22 29.49 999 2 3 0.01 0.25
1:09 pm 13:09 Cloudy 33 0.6 31 -0.6 92 92 N 13 20 29.49 999 7 11 0.01 0.25
1:29 pm 13:29 Cloudy 33 0.6 31 -0.6 92 92 N 13 20 29.49 999 8 13 0.02 0.51
1:41 pm 13:41 Cloudy 33 0.6 30 -1.1 89 89 N 10 17 29.49 999 8 13 0.02 0.51
1:53 pm 13:53 Cloudy 33 0.6 30 -1.1 89 89 N 14 22 29.48 998 9 14 0.02 0.51
2:12 pm 14:12 Cloudy 33 0.6 30 -1.1 89 89 N 13 20 29.51 999 9 14 0.01 0.25
2:20 pm 14:20 Cloudy with Light Snow 33 0.6 30 -1.1 89 89 N 13 20 29.50 999 9 14 0.01 0.25
2:53 pm 14:53 Cloudy with Light Snow 33 0.6 30 -1.1 89 89 N 13 20 29.48 998 9 14 0.01 0.25
3:53 pm 15:53 Cloudy with Light Snow 33 0.6 30 -1.1 89 89 NNW 13 20 29.48 998 5 8 0.00 0.00
4:44 pm 16:44 Cloudy with Light Snow 34 1.1 30 -1.1 85 85 N 14 22 29.50 999 9 14 0.00 0.00
4:53 pm 16:53 Cloudy 34 1.1 30 -1.1 85 85 N 14 22 29.49 999 9 14 0.00 0.00
5:53 pm 17:53 Cloudy 34 1.1 29 -1.7 82 82 N 10 17 29.50 999 10 16 0.00 0.00
6:12 pm 18:12 Cloudy 34 1.1 29 -1.7 82 82 N 13 20 29.52 1000 10 16 0.00 0.00
6:53 pm 18:53 Cloudy 34 1.1 29 -1.7 82 82 N 12 19 29.51 999 10 16 0.00 0.00
7:53 pm 19:53 Cloudy 34 1.1 29 -1.7 82 82 N 12 19 29.51 999 10 16 0.00 0.00
8:53 pm 20:53 Cloudy 34 1.1 28 -2.2 79 79 N 16 26 29.53 1000 10 16 0.00 0.00
9:53 pm 21:53 Cloudy 34 1.1 28 -2.2 79 79 N 10 17 29.53 1000 10 16 0.00 0.00
10:53 pm 22:53 Cloudy 34 1.1 27 -2.8 76 76 N 14 22 29.55 1001 10 16 0.00 0.00
11:53 pm 23:53 Cloudy 34 1.1 26 -3.3 73 73 N 14 22 29.56 1001 10 16 0.00 0.00

Powered by AerisWeather